DECAYED

OBJECT AM, 57039 (Decayed)

Orbit data source: Space-Track

You're viewing an Uncataloged Satellite

Recently launched and/or uncataloged satellites may have evolving metadata. Metadata may include but not limited to: Owner, Maufacturer, Bus, Motor, and Mission.

OBJECT AM, 57039 was a Chinese satellite in SSO that was launched on Thu, 15 Jun 2023 UTC via a CHANG ZHENG 2D launch vehicle from the Taiyaun Space Center, China (TSC). Unknown objects in Earth's orbit typically refer to objects detected orbiting the Earth but have not yet been identified or cataloged. These objects could be anything from previously untracked satellites, spent rocket stages, debris from satellite collisions, or even natural meteoroids temporarily captured by Earth's gravity. This object's orbit decayed before it could be identified.

Loading next visibility...
Identifier
57039, 2023-085AM
Orbit
Decayed
Country
Flag of CNCN / PRC
Related business
None
Manufacturer
Unknown
Mission
Decayed Commercial Imaging
Bus & Motor
Unknown
Mass
Unknown
Launch date (UTC)
2023-06-15 (3 years ago)
Launch vehicle
CHANG ZHENG 2D
Launch site
Taiyaun Space Center, China (TSC)
Object type
Unknown
Shape & HBR
Box, 0.8 m
Radar Cross Section
2.000 m², Medium (>0.1 m² and < 1m²)

Expand to show TLE details & history
Last TLE update: 8 months ago

TLE from 8 months ago
0 OBJECT AM
1 57039U 23085AM  25281.28710157  .01765364  23860-2  21355-2 0  9992
2 57039  97.4598  43.6933 0006067 265.9270  94.1319 16.08786239129375
Epoch: 2025-10-08T06:53Z
TLE epoch observation values (Epoch: 2025-10-08T06:53:25.575Z)
Latitude
-0.00006°
Longitude
-76.82707°
Altitude
253.675 km
Speed
7.755 km/s
True Right ascension
02h 54m 46s
True Declination
0° 00' 00"
Sunlit
Object was in full shadow at epoch
Visualization orbit readout
Latitude
Unknown
Longitude
Unknown
Altitude
Unknown
Speed
Unknown
Apparent Right ascension
Unknown
Apparent Declination
Unknown
Sunlit
N/A
Visualization observer readout
Local Sidereal Time
21:31:55
Azimuth
Unknown
Elevation
Unknown
Doppler factor
Unknown
Orbital elements
Apogee altitude
251.045 km
Perigee altitude
243.007 km
Semi-major axis
6,625.163 km
Eccentricity
0.00061
Inclination
97.4598°
RAAN
43.6933°
Arg. of periapsis
265.927°
True anomaly
94.20124°
Mean anomaly
94.1319°
Eccentric anomaly
94.16657°
Mean motion
4.02484 °/min
Orbital period
89.44 mins
BSTAR
0.0021355
Loading maneuver chart data...
Computing Atmospheric mass density...
Loading historical data...
Loading historical data...
Loading historical data...
Loading historical data...
Loading historical data...
Loading historical data...
Loading historical data...

Documentation

Showing up to 5 results
|